913  
ASUS41 KALY 080310  
RWRALY  
 
NEW YORK STATE HOURLY WEATHER ROUNDUP  
NATIONAL WEATHER SERVICE ALBANY NY  
1000 PM EST TUE FEB 07 2023  
 
NOTE: "FAIR" INDICATES FEW OR NO CLOUDS BELOW 12,000 FEET WITH NO  
SIGNIFICANT WEATHER AND/OR NO S TO VISIBILITY
.  
 
NYZ032-033-038>043-046>054-057>066-NYZ062>081-082-084-080400-  
EAST  
 
 
CITY SKY/WX TMP DP RH WIND PRES REMARKS
 
ALBANY CLOUDY 36 26 67 SE10 30.03F WCI 28  
GLENS FALLS CLOUDY 34 26 72 SW8 30.03F WCI 27  
POUGHKEEPSIE MIX PCPN 35 31 85 S3 30.12F  
NEWBURGH LGT RAIN 36 30 80 CALM 30.11F FOG  
MONTGOMERY CLOUDY 32 30 92 CALM 30.11F  
WHITE PLAINS LGT RAIN 38 32 79 VRB3 30.14F  
ISLIP LGT RAIN 40 38 93 W9 30.18R WCI 34  
NEW YORK CITY LGT RAIN 41 31 67 S9 30.17S  
CENTRAL PARK LGT RAIN 41 32 70 SW7 30.19F  

 
 
NYZ005>009-017-018-044>046-055-056-080400-  
CENTRAL  
 
 
CITY SKY/WX TMP DP RH WIND PRES REMARKS
 
FULTON CLOUDY 41 33 73 W5 29.99R  
SYRACUSE CLOUDY 45 33 63 SW14 29.97S  
ROME CLOUDY 36 31 82 E3 29.99S  
ELMIRA CLOUDY 41 33 73 SW8 30.02S  
BINGHAMTON CLOUDY 35 29 78 SW12 29.99F WCI 27  
MONTICELLO CLOUDY 31 28 89 CALM 30.08F  

 
 
NYZ026>034-041>043-087-080400-  
NORTH  
 
 
CITY SKY/WX TMP DP RH WIND PRES REMARKS
 
WATERTOWN CLOUDY 42 35 76 SW15G26 29.95R  
FORT DRUM NOT AVBL  
OGDENSBURG CLOUDY 41 36 81 SW8G17 29.89R  
MASSENA CLOUDY 39 33 79 SW10 29.89R WCI 32  
SARANAC LAKE CLOUDY 34 32 92 SW10 29.85F WCI 26  
PLATTSBURGH CLOUDY 35 27 72 S13 29.91F WCI 26  

 
 
NYZ001>004-010>016-019>021-085-080400-  
WEST  
 
 
CITY SKY/WX TMP DP RH WIND PRES REMARKS
 
NIAGARA FALLS CLOUDY 40 33 76 W16G23 30.04R WCI 31  
BUFFALO MOCLDY 40 32 73 W10 30.04R WCI 33  
DUNKIRK CLOUDY 40 33 76 SW8 30.10R WCI 34  
JAMESTOWN CLOUDY 36 33 89 NW14 30.07R WCI 27  
WELLSVILLE MOCLDY 45 36 70 W10G18 30.01R  
ROCHESTER CLOUDY 43 34 70 W10G21 30.01R  
PENN YAN MOCLDY 41 36 82 SW8 29.98F  

 
 
KEY  
WCI = WIND CHILL INDEX  
VSB = VISIBILITY  
HX = HEAT INDEX  

 
 
 
CLICK HERE TO GO TO PREVIOUS BULLETINS.

The Nexlab NY Page
The Nexlab VT Page
The Nexlab MA Page
The Nexlab CT Page Main Text Page